Hovedside
METAR-TAF:

METAR-TAF

Lufthavner :

Hemavan flyplass

Hemavan, Sverige

breddegrad: 65-48-22N, lengdegrad: 015-04-58E, høyde over havet: 458 m

Gjeldene værobservasjon

Denne rapporten ble laget for 31 minutter siden, klokken 04:20 UTC
Flau vind
Temperatur 6°C
Luftfuktighet 87%
Trykk 1002 hPa
Sikt 10 km eller mer

METAR: ESUT 210420Z AUTO 00000KT 9999 FEW017/// OVC031/// 06/04 Q1002

Tid: 06:51 (04:51 UTC)


TAF: fraværende

Værobservasjoner og værvarsel for over 4000 flyplasser (METAR- og TAF-rapporter).

Tilgjengelige stasjoner er representert av de røde og gule prikkene på kartet.

Hold musepekeren over prikken for å se navnet på stasjonen.

Klikk så for å se værobservasjoner og -varsler.

For å forandre kartet kan du klikke på den grønne knappen med svart kryss for å zoome inn, på den grønne knappen med strek for å zoome ut, eller på de grønne pilene for å se tilstøtende kart.


METAR-TAF: